This is the latest recevied weather packets stored in our database for station/object K6JWN. If no packets are shown the sender has not sent any weather packets the latest 10 day(s).
| Time | Temp. | Humidity | Pressure | Rain* | Wind** | Luminosity | Snow |
|---|---|---|---|---|---|---|---|
| 1778262557 | 18.89° C | 69% | 1016.9 hPa | 0 mm | - | - | - |
| 1778261957 | 18.89° C | 69% | 1017.1 hPa | 0 mm | - | - | - |
| 1778261357 | 17.78° C | 68% | 1017 hPa | 0 mm | - | - | - |
| 1778260757 | 17.78° C | 68% | 1017.2 hPa | 0 mm | - | - | - |
| 1778260157 | 17.22° C | 72% | 1017.3 hPa | 0 mm | - | - | - |
| 1778259557 | 16.67° C | 72% | 1017.4 hPa | 0 mm | - | - | - |
| 1778258957 | 16.11° C | 75% | 1017.3 hPa | 0 mm | - | - | - |
| 1778258357 | 15.56° C | 75% | 1017.2 hPa | 0 mm | - | - | - |
| 1778257757 | 15° C | 76% | 1017.2 hPa | 0 mm | - | - | - |
| 1778257157 | 13.89° C | 78% | 1017.1 hPa | 0 mm | - | - | - |
| 1778256557 | 13.33° C | 80% | 1017.3 hPa | 0 mm | - | - | - |
| 1778255957 | 12.78° C | 80% | 1017.4 hPa | 0 mm | - | - | - |
| 1778255357 | 12.78° C | 80% | 1017.3 hPa | 0 mm | - | - | - |
| 1778254757 | 12.78° C | 79% | 1017.4 hPa | 0 mm | - | - | - |
| 1778254157 | 12.78° C | 79% | 1017.4 hPa | 0 mm | - | - | - |
| 1778253557 | 12.78° C | 79% | 1017.3 hPa | 0 mm | - | - | - |
| 1778252957 | 12.78° C | 79% | 1017.3 hPa | 0 mm | - | - | - |
| 1778252357 | 12.78° C | 79% | 1017.3 hPa | 0 mm | - | - | - |
| 1778251757 | 12.78° C | 79% | 1017 hPa | 0 mm | - | - | - |
| 1778251157 | 12.22° C | 80% | 1017.1 hPa | 0 mm | - | - | - |
| 1778250557 | 11.67° C | 81% | 1017.1 hPa | 0 mm | - | - | - |
| 1778249957 | 11.67° C | 83% | 1016.9 hPa | 0 mm | - | - | - |
| 1778249357 | 11.11° C | 83% | 1016.8 hPa | 0 mm | - | - | - |
| 1778248757 | 11.11° C | 84% | 1016.7 hPa | 0 mm | - | - | - |
| 1778248157 | 10.56° C | 84% | 1016.5 hPa | 0 mm | - | - | - |
* Rain latest hour (hover to see other rain measurements)
** Current wind speed in m/s (hover to see current wind gust speed)